www.pogodaiklimat.ru
ПОГОДА в Сан-Мигель-де-Тукумане

Архив погоды в Сан-Мигель-де-Тукумане (Аргентина)

Время
(UTC), дата
10 6.04
11 6.04
12 6.04
13 6.04
14 6.04
15 6.04
16 6.04
17 6.04
18 6.04
19 6.04
20 6.04
21 6.04
22 6.04
23 6.04
00 7.04
01 7.04
02 7.04
03 7.04
04 7.04
05 7.04
06 7.04
07 7.04
08 7.04
09 7.04
10 7.04
11 7.04
12 7.04
13 7.04
14 7.04
15 7.04
16 7.04
17 7.04
18 7.04
19 7.04
20 7.04
21 7.04
22 7.04
23 7.04
00 8.04
01 8.04
02 8.04
03 8.04
04 8.04
05 8.04
06 8.04
07 8.04
08 8.04
09 8.04
10 8.04
11 8.04
12 8.04
13 8.04
14 8.04
15 8.04
16 8.04
17 8.04
18 8.04
19 8.04
20 8.04
21 8.04
22 8.04
23 8.04
00 9.04
01 9.04
02 9.04
03 9.04
04 9.04
05 9.04
06 9.04
07 9.04
08 9.04
09 9.04
10 9.04
11 9.04
12 9.04
13 9.04
14 9.04
15 9.04
16 9.04
17 9.04
18 9.04
19 9.04
20 9.04
21 9.04
22 9.04
23 9.04
00 10.04
01 10.04
02 10.04
03 10.04
04 10.04
05 10.04
06 10.04
07 10.04
08 10.04
09 10.04
10 10.04
11 10.04
12 10.04
13 10.04
14 10.04
15 10.04
16 10.04
17 10.04
18 10.04
19 10.04
20 10.04
21 10.04
22 10.04
23 10.04
00 11.04
01 11.04
02 11.04
03 11.04
04 11.04
05 11.04
06 11.04
07 11.04
08 11.04
09 11.04
10 11.04
11 11.04
12 11.04
13 11.04
14 11.04
15 11.04
16 11.04
17 11.04
18 11.04
19 11.04
20 11.04
21 11.04
22 11.04
23 11.04
00 12.04
01 12.04
02 12.04
03 12.04
04 12.04
05 12.04
06 12.04
07 12.04
08 12.04
09 12.04
11 12.04
12 12.04
13 12.04
14 12.04
15 12.04
16 12.04
17 12.04
18 12.04
19 12.04
20 12.04
21 12.04
22 12.04
23 12.04
00 13.04
01 13.04
02 13.04
03 13.04
04 13.04
05 13.04
06 13.04
07 13.04
08 13.04
09 13.04
Ветер
(напр.,м/с)
Видим. Явления Облачность Т
(С)
Тd
(С)
f
(%)
Тe
(С)
Тes
(С)
Комфортность P
(гПа)
Po
(гПа)
Тmin
(С)
Tmax
(С)
R
(мм)
R24
(мм)
S
(см)
С 2 8000 м дымка 3/0 2000 м
[Ac As]
+19.3 +18.5 95 +22 +22 комфорт 1011.0 960.1
С 3 9000 м дымка 6/0 2000 м
[Ac As]
+19.7 +18.6 93 +23 +23 комфорт 1010.7 959.8
С 3 12 км 5/0 2000 м
[Ac As]
+20.8 +19.6 93 +26 +27 душно 1010.8 960.0 +18.9 +20.8 4
С 3 12 км 5/4 1350 м
[Sc Ac As]
+22.7 +19.8 84 +29 +32 очень душно 1010.3 959.7
СВ 2 12 км 5/5 600 м
[Cu Sc]
+24.7 +20.2 76 +30 +36 очень душно 1009.4 959.0
СВ 2 12 км 5/5 600 м
[Cu hum]
+26.3 +20.4 70 +33 +39 очень душно 1008.3 958.1
В 2 12 км 6/6 750 м
[Cu Sc]
+26.6 +20.5 69 +33 +39 очень душно 1007.7 957.4
В 2 12 км 8/8 900 м
[Cu Sc]
+26.2 +20.3 70 +32 +35 очень душно 1006.9 956.6
нст 2 12 км 8/8 900 м
[Cu Sc]
+26.9 +21.2 71 +34 +36 очень душно 1006.1 956.0
Ю 2 12 км 9/9 750 м
[Cu Sc]
+26.7 +21.3 72 +34 +35 очень душно 1006.2 956.0
Ю 4 12 км 10/10 750 м
[Sc]
+25.1 +21.1 78 +32 +32 очень душно 1006.9 956.6
ЮВ 4 12 км 10/10 1050 м
[Sc]
+24.3 +21.4 84 +31 +31 очень душно 1007.8 957.3
Ю 3 12 км 9/8 1350 м
[Sc Ac As]
+23.9 +21.7 88 +31 +31 очень душно 1008.8 958.2
штиль 0 10 км 9/8 1500 м
[Sc Ac As]
+23.1 +21.5 91 +31 +31 очень душно 1010.2 959.6
З 2 10 км 9/6 800 м
[St Ac As]
+22.5 +21.2 92 +30 +30 очень душно 1010.9 960.2 +20.8 +27.2
З 2 10 км 9/8 1000 м
[Sc Ac As]
+22.1 +21.1 94 +29 +29 очень душно 1011.9 961.4
Ю 2 10 км 10/8 210 м
[Frnb Ac As]
+22.5 +21.5 94 +30 +30 очень душно 1012.6 962.2
Ю 1 10 км 10/8 180 м
[Frnb Ac As]
+22.3 +21.9 98 +30 +30 очень душно 1012.7 962.4
З 1 6000 м слаб. дождь 10/10 30 м
[Frnb]
+22.3 +21.7 96 +29 +29 очень душно 1012.4 962.2
ЮЗ 2 7000 м в посл. час дождь 10/10 90 м
[Frnb]
+22.3 +21.9 98 +30 +30 очень душно 1012.6 962.2
Ю 5 8000 м дымка {дождь} 10/10 90 м
[Frnb]
+20.9 +20.4 97 +26 +26 душно 1012.1 961.8
Ю 4 3000 м дымка 10/10 60 м
[Frnb]
+20.3 +19.8 97 +24 +24 комфорт 1011.6 961.3
ЮЗ 3 500 м туман, небо видно 10/10 60 м
[Frnb]
+19.7 +19.2 97 +23 +23 комфорт 1011.7 961.2
Ю 2 1500 м слаб. дождь {морось} туман 10/10 60 м +19.5 +19.0 97 +23 +23 комфорт 1012.3 961.7
Ю 3 2000 м слаб. морось {дождь} туман 10/10 60 м
[Frnb]
+19.2 +18.9 98 +22 +22 комфорт 1013.0 962.2
ЮВ 2 3000 м слаб. морось туман 10/9 90 м
[Frnb As op]
+18.5 +18.3 99 +20 +20 1014.2 963.3
Ю 2 5000 м слаб. морось {дождь} туман 10/9 60 м
[Frnb As op]
+18.8 +18.5 98 +21 +21 комфорт 1015.0 964.0 +18.2 +22.5 0.4
Ю 2 8000 м в посл. час морось туман 10/10 120 м
[Frnb]
+19.4 +19.1 98 +23 +23 комфорт 1015.3 964.2
ЮЗ 3 10 км дымка {морось} 10/10 120 м
[St]
+20.3 +19.5 95 +25 +25 комфорт 1015.2 964.2
Ю 3 10 км дымка {морось} 10/10 240 м
[St]
+21.1 +19.7 92 +26 +26 душно 1015.0 964.2
Ю 3 12 км 9/9 360 м
[St]
+22.9 +20.0 84 +30 +31 очень душно 1014.4 963.8
ЮВ 2 15 км 9/9 600 м
[Sc]
+23.7 +19.9 79 +29 +30 душно 1013.4 962.9
нст 2 15 км {морось} 8/8 700 м
[Cu Sc]
+25.1 +19.9 73 +31 +33 очень душно 1012.5 962.0 0.0
Ю 2 15 км 9/9 700 м
[Cu Sc]
+25.3 +20.1 73 +31 +32 очень душно 1012.1 961.6
ЮВ 2 15 км 6/6 750 м
[Cu Sc]
+25.1 +19.9 73 +31 +32 очень душно 1012.0 961.4
ЮВ 2 15 км 3/3 900 м
[Cu hum]
+25.3 +20.1 73 +31 +32 очень душно 1011.6 961.0
В 3 15 км 3/3 750 м
[Sc diur, vesp]
+23.7 +20.3 81 +29 +29 душно 1012.2 961.4
В 4 12 км 1/1 900 м
[Sc diur, vesp]
+21.3 +19.3 88 +26 +26 душно 1012.8 961.8
В 4 12 км 1/1 900 м
[Sc diur, vesp]
+20.0 +18.8 93 +23 +23 комфорт 1013.7 962.6 +18.8 +26.1
В 5 12 км 1/1 900 м
[Sc diur, vesp]
+18.8 +17.9 95 +20 +20 1014.3 963.0
В 4 10 км 3/3 1200 м
[Sc]
+18.5 +17.7 95 +19 +19 1014.7 963.4
В 5 2500 м дымка 10/10 60 м
[Frnb]
+18.6 +18.1 97 +19 +19 1014.6 963.4
В 5 1500 м дымка 10/10 60 м
[Frnb]
+18.3 +18.0 98 +19 +19 1014.0 963.0
В 4 1500 м дымка 10/10 60 м
[Frnb]
+18.3 +18.1 99 +19 +19 1013.6 962.6
В 1 2500 м дымка 10/10 60 м
[Frnb]
+17.7 +17.5 99 +19 +19 1012.7 962.0
В 2 200 м туман, небо видно туман 10/10 60 м
[Frnb]
+17.7 +17.5 99 +18 +18 1012.3 961.6
В 3 200 м туман, небо видно туман 10/10 60 м
[Frnb]
+17.6 +17.3 98 +18 +18 1011.7 961.0
В 3 7000 м в посл. час туман туман 10/10 180 м
[Frnb]
+17.5 +16.9 96 +18 +18 1011.1 960.4
В 3 4500 м дымка {туман} 10/10 150 м
[Frnb]
+17.7 +17.1 96 +18 +18 1011.2 960.4
СВ 3 5000 м дымка 10/10 120 м
[Frnb]
+17.6 +17.6 100 +18 +18 1011.4 960.4
СВ 3 6000 м дымка {туман} 10/10 120 м
[Frnb]
+18.4 +17.4 94 +19 +19 1011.7 960.6 +17.1 +20.2 0.0
6000 м н/о +19.1 +17.8 92 +21 +22 комфорт 1012.0 960.9
В 2 6000 м дымка 10/10 210 м
[Frnb]
+19.1 +17.2 89 +22 +22 комфорт 1011.8 960.6
нст 2 10 км 10/10 360 м
[Frnb]
+21.1 +18.3 84 +25 +25 комфорт 1010.9 960.0
10 км н/о +22.7 +18.5 77 +28 +29 душно 1009.6 957.9
ЮЗ 4 10 км 9/9 630 м
[Frnb]
+21.8 +19.0 84 +27 +28 душно 1008.9 958.1
ЮЗ 4 10 км 10/10 540 м
[Frnb]
+21.5 +18.9 85 +26 +26 душно 1008.5 957.7
ЮЗ 4 10 км 10/10 450 м
[Frnb]
+21.0 +19.0 88 +26 +26 душно 1007.9 957.0
Ю 3 8000 м дымка 10/10 300 м
[Frnb]
+20.4 +18.4 88 +24 +24 комфорт 1007.8 956.9
ЮЗ 3 8000 м дымка 10/10 300 м
[Frnb]
+20.2 +18.6 91 +24 +24 комфорт 1007.5 956.6
ЮЗ 2 8000 м 10/10 400 м
[Frnb]
+19.9 +18.3 90 +23 +23 комфорт 1007.5 956.6
ЮЗ 2 8000 м дымка 10/10 450 м
[Frnb]
+19.8 +18.6 93 +23 +23 комфорт 1007.8 956.9
ЮЗ 2 7000 м слаб. морось туман 10/10 180 м
[Frnb]
+19.7 +18.9 95 +23 +23 комфорт 1008.3 957.4 +18.4 +24.8 0.0
Ю 2 5000 м слаб. морось туман 10/10 60 м
[Frnb]
+19.5 +19.0 97 +23 +23 комфорт 1009.0 958.1
ЮЗ 2 5000 м слаб. морось туман 10/10 60 м
[Frnb]
+19.3 +19.0 98 +22 +22 комфорт 1009.4 958.5
ЮЗ 1 5000 м слаб. морось туман 10/10 90 м
[Frnb]
+19.4 +19.1 98 +23 +23 комфорт 1009.5 958.6
ЮЗ 2 5000 м слаб. морось туман 10/10 60 м
[Frnb]
+19.3 +19.1 99 +22 +22 комфорт 1009.8 959.0
ЮЗ 2 3000 м слаб. морось туман 10/10 60 м
[Frnb]
+19.3 +19.1 99 +22 +22 комфорт 1010.0 959.3
ЮЗ 2 3000 м слаб. морось туман 10/10 60 м
[Frnb]
+19.3 +19.1 99 +22 +22 комфорт 1010.3 959.4 1
З 2 5000 м в посл. час морось туман 10/10 90 м
[Frnb]
+19.4 +19.2 99 +23 +23 комфорт 1010.2 959.4
ЮЗ 2 5000 м слаб. морось туман 10/10 90 м
[Frnb]
+19.3 +19.1 99 +22 +22 комфорт 1010.5 959.6
ЮЗ 3 5000 м слаб. морось туман 10/10 60 м
[Frnb]
+19.5 +19.2 98 +22 +22 комфорт 1010.9 960.0
ЮЗ 3 1800 м в посл. час морось туман 10/10 60 м
[Frnb]
+19.3 +19.3 100 +22 +22 комфорт 1011.9 960.9
Ю 3 2500 м дымка {морось} 10/10 90 м
[Frnb]
+19.6 +19.3 98 +23 +23 комфорт 1013.0 962.0
ЮЗ 2 3000 м дымка {морось} 10/10 90 м
[Frnb]
+19.6 +19.4 99 +23 +23 комфорт 1013.7 962.6 +19.0 +20.2 0.2
ЮЗ 2 7000 м дымка 10/10 180 м
[Frnb]
+20.8 +19.6 93 +26 +26 душно 1014.3 963.3
ЮЗ 2 8000 м дымка 9/9 240 м
[Frnb]
+21.9 +19.6 87 +27 +28 душно 1014.4 963.4
Ю 3 10 км 8/8 360 м
[Frnb]
+23.3 +19.5 79 +30 +32 очень душно 1014.1 963.3
Ю 4 10 км 8/8 420 м
[Frnb]
+24.1 +20.1 78 +30 +31 очень душно 1013.5 962.8
Ю 4 12 км 8/8 450 м
[Frnb]
+24.7 +20.4 77 +31 +32 очень душно 1012.7 962.1
Ю 3 12 км 10/10 1000 м
[Cu Sc]
+24.1 +20.7 81 +30 +30 очень душно 1012.3 961.6
Ю 4 12 км 5/5 600 м
[Cu hum]
+25.7 +20.5 73 +32 +35 очень душно 1011.2 960.6
ЮВ 3 12 км 9/9 1050 м
[Cu hum]
+25.5 +20.0 72 +31 +32 очень душно 1010.7 960.2
В 2 12 км 9/5 900 м
[Cu hum Ac trans]
+24.7 +20.4 77 +31 +31 очень душно 1010.4 959.8
В 2 12 км 9/5 900 м
[Cu hum Ac trans]
+24.3 +20.3 78 +30 +30 очень душно 1010.6 960.0
В 3 10 км 10/3 1350 м
[Sc Ac As]
+23.2 +20.5 85 +31 +31 очень душно 1010.8 960.2
В 3 10 км 10/3 1350 м
[Sc Ac As]
+22.5 +21.0 91 +29 +29 очень душно 1011.6 960.9 +19.6 +26.6
В 3 10 км 9/3 1350 м
[Sc Ac As]
+21.7 +21.0 96 +28 +28 душно 1012.1 961.4
СВ 2 7000 м дымка 10/10 60 м
[Frnb]
+21.5 +20.9 96 +27 +27 душно 1012.5 961.8
В 2 1600 м дымка 10/10 60 м
[Frnb]
+21.5 +21.2 98 +27 +27 душно 1012.4 961.8
штиль 0 1800 м дымка 10/10 60 м
[Frnb]
+21.4 +21.1 98 +27 +27 душно 1012.4 961.8
ЮВ 2 1000 м дымка 10/10 90 м
[Frnb]
+21.2 +20.9 98 +27 +27 душно 1012.2 961.7
Ю 2 10 км дымка 10/10 60 м
[Frnb]
+21.1 +20.7 98 +26 +26 душно 1011.9 961.4
Ю 2 2000 м слаб. морось туман 10/10 30 м
[Frnb]
+21.0 +20.7 98 +27 +27 душно 1010.9 960.6
Ю 3 4000 м в посл. час морось туман 10/10 30 м
[Frnb]
+21.0 +20.9 99 +27 +27 душно 1010.6 960.2
Ю 2 5000 м слаб. морось туман 10/10 90 м
[Frnb]
+20.8 +20.6 99 +26 +26 душно 1011.0 960.6
Ю 3 5000 м слаб. дождь {морось} туман 10/10 60 м
[Frnb]
+20.7 +20.5 99 +26 +26 душно 1011.6 961.0
Ю 4 4000 м слаб. морось {дождь} 10/10 90 м
[Frnb]
+20.7 +20.5 99 +26 +26 душно 1012.3 961.7
Ю 4 3000 м слаб. морось {дождь} туман 10/10 90 м
[Frnb]
+20.7 +20.5 99 +26 +26 душно 1013.2 962.5 +20.5 +22.5 2
Ю 4 2000 м дождь {морось} туман 10/10 90 м
[Frnb]
+20.7 +20.5 99 +26 +26 душно 1014.0 963.2
ЮВ 4 2000 м дождь {морось} 10/10 90 м
[Frnb]
+20.1 +19.9 99 +24 +24 комфорт 1014.7 963.8
ЮВ 4 5000 м дождь {морось} 10/10 150 м
[Frnb]
+20.0 +19.8 99 +24 +24 комфорт 1014.8 963.8
Ю 4 1500 м дождь {морось} 10/10 120 м
[Frnb]
+20.2 +20.0 99 +24 +24 комфорт 1014.3 963.4
Ю 3 1500 м дождь {морось} 10/10 120 м
[Frnb]
+20.0 +19.8 99 +24 +24 комфорт 1013.9 963.0
ЮВ 4 2500 м дождь {морось} 10/10 120 м
[Frnb]
+19.7 +19.5 99 +23 +23 комфорт 1013.7 962.6 12
В 4 2000 м дождь {морось} 10/10 120 м
[Frnb]
+19.3 +19.1 99 +22 +22 комфорт 1013.7 962.6
В 4 2000 м дождь {морось} 10/10 120 м
[Frnb]
+19.1 +18.8 98 +21 +21 комфорт 1013.9 962.9
ЮВ 2 2000 м дождь {морось} 10/9 120 м
[Frnb As op]
+18.8 +18.6 99 +21 +21 комфорт 1014.2 963.0
ЮВ 4 2000 м дождь {морось} 10/10 120 м
[Frnb]
+18.3 +18.1 99 +19 +19 1014.9 963.7
Ю 5 4000 м слаб. морось {дождь} 10/10 120 м
[Frnb]
+17.7 +17.5 99 +17 +17 1016.3 965.0
Ю 4 3000 м слаб. морось {дождь} туман 10/10 120 м
[Frnb]
+17.5 +17.3 99 +17 +17 1017.3 965.8 +17.2 +21.4 6
Ю 4 3000 м морось туман 10/10 90 м
[Frnb]
+17.4 +17.2 99 +17 +17 1018.1 966.6
Ю 3 3000 м морось 10/10 90 м
[Frnb]
+17.3 +17.1 99 +17 +17 1019.1 967.6
Ю 3 3500 м морось туман 10/10 90 м
[Frnb]
+17.3 +17.1 99 +17 +17 1019.3 967.8
ЮЗ 2 3500 м слаб. морось туман 10/10 90 м
[Frnb]
+17.3 +17.1 99 +18 +18 1019.1 967.6
Ю 5 4000 м слаб. морось туман 10/10 90 м
[Frnb]
+16.6 +16.4 99 +16 +16 1019.3 967.7
Ю 6 3500 м слаб. дождь {морось} туман 10/10 90 м
[Frnb]
+16.3 +16.1 99 +15 +15 1019.2 967.4 5
Ю 5 2000 м слаб. дождь 10/10 90 м
[Frnb]
+15.1 +14.9 99 +14 +14 1018.7 966.9
Ю 4 1800 м слаб. дождь туман 10/10 90 м
[Frnb]
+14.5 +14.3 99 +13 +13 1018.8 967.0
Ю 3 11 км слаб. дождь 10/10 120 м
[Frnb]
+14.1 +13.9 99 +13 +13 1019.5 967.6
Ю 4 1800 м слаб. морось {дождь} туман 10/10 90 м
[Frnb]
+13.7 +13.5 99 +12 +12 1020.0 968.0
ЮВ 3 1200 м слаб. морось туман 10/10 90 м
[Frnb]
+13.3 +13.1 99 +12 +12 1020.5 968.4
Ю 4 1800 м слаб. морось {дождь} туман 10/10 90 м
[Frnb]
+13.2 +12.8 97 +12 +12 1021.3 969.0 +12.6 +17.9 5
Ю 4 2000 м слаб. морось туман 10/10 120 м
[Frnb]
+13.1 +12.7 97 +11 +11 1021.8 969.4
Ю 3 5000 м в посл. час морось туман 10/10 150 м
[Frnb]
+13.7 +13.2 97 +12 +12 1021.3 969.0
Ю 3 8000 м дымка {морось} 10/10 240 м
[Frnb]
+14.5 +13.3 93 +14 +14 1020.7 968.6
Ю 2 10 км 10/10 300 м
[Frnb]
+15.0 +13.6 91 +15 +15 1020.0 968.0
Ю 2 10 км 10/10 360 м
[Frnb]
+13.6 +13.6 100 +13 +13 1019.2 967.2
Ю 2 10 км {морось} 10/10 400 м
[Frnb]
+16.2 +13.8 86 +16 +16 1018.1 966.2 0.0
Ю 3 10 км 10/10 330 м
[Frnb]
+16.3 +14.1 87 +16 +16 1017.6 965.6
ЮВ 3 10 км 10/10 330 м
[Frnb]
+15.8 +13.9 88 +15 +15 1017.3 965.3
ЮВ 3 10 км 10/10 210 м
[Frnb]
+15.0 +13.8 93 +14 +14 1017.5 965.3
ЮВ 3 8000 м дымка 10/10 210 м
[Frnb]
+14.5 +13.5 94 +13 +13 1017.7 965.4
Ю 2 9000 м дымка 10/10 180 м
[Frnb]
+14.1 +13.2 94 +14 +14 1018.5 966.1
Ю 2 9000 м дымка 10/10 180 м
[Frnb]
+14.1 +13.2 94 +13 +13 1019.5 967.0 +12.5 +16.6
ЮВ 3 5000 м слаб. морось туман 10/10 180 м
[Frnb]
+13.9 +13.4 97 +13 +13 1020.1 967.6
ЮВ 1 4000 м слаб. морось туман 10/10 120 м
[Frnb]
+13.8 +13.5 98 +14 +14 1020.6 968.1
ЮВ 2 4000 м слаб. морось туман 10/10 120 м
[Frnb]
+13.6 +13.4 99 +13 +13 1020.5 968.1
Ю 2 4000 м слаб. морось туман 10/10 90 м
[Frnb]
+13.3 +13.1 99 +12 +12 1020.5 968.1
ЮЗ 2 4000 м слаб. морось туман 10/10 60 м
[Frnb]
+13.1 +12.9 99 +13 +13 1019.9 967.6
З 2 6000 м слаб. морось туман 10/10 90 м
[Frnb]
+13.1 +12.9 99 +13 +13 1019.2 967.0 1
ЮЗ 2 9000 м слаб. морось туман 10/10 90 м
[Frnb]
+13.2 +12.8 97 +13 +13 1018.5 966.2
ЮЗ 2 7000 м слаб. морось туман 10/10 90 м
[Frnb]
+13.4 +12.9 97 +13 +13 1017.8 965.6
ЮЗ 2 5000 м слаб. морось туман 10/10 90 м
[Frnb]
+13.5 +13.1 97 +13 +13 1017.5 965.3
ЮЗ 2 4000 м слаб. морось туман 10/10 60 м
[Frnb]
+13.7 +13.5 99 +13 +13 1017.9 965.6
ЮЗ 2 5000 м слаб. морось туман 10/10 90 м
[Frnb]
+13.9 +13.7 99 +13 +13 1017.9 965.6 +13.0 +14.7 0.2
ЮЗ 2 4000 м слаб. морось туман 10/10 90 м
[Frnb]
+14.1 +13.9 99 +13 +13 1018.1 965.8
Ю 2 5000 м в посл. час морось туман 10/10 120 м
[Frnb]
+14.3 +13.8 97 +14 +14 1017.8 965.4
ЮЗ 3 6000 м дымка {морось} 10/10 210 м
[Frnb]
+15.1 +14.2 94 +14 +14 1017.6 965.4
ЮЗ 3 8000 м дымка 10/10 270 м
[Frnb]
+15.5 +14.3 93 +15 +15 1016.8 964.6
Ю 2 8000 м дымка 10/10 300 м
[Frnb]
+16.1 +14.2 88 +16 +16 1015.4 963.4
Ю 2 10 км {морось} 10/10 300 м
[Frnb]
+17.1 +14.2 83 +17 +17 1014.4 962.5 0.0
Ю 2 10 км 10/10 450 м
[Cu Sc]
+16.9 +14.4 85 +17 +17 1013.8 961.8
ЮВ 2 10 км 10/10 450 м
[Cu Sc]
+17.7 +14.5 82 +18 +18 1013.3 961.4
Ю 3 10 км 10/8 750 м
[Sc Ac As]
+17.3 +14.4 83 +17 +18 1013.3 961.4
Ю 3 10 км 10/10 1200 м
[Sc]
+16.5 +15.0 91 +16 +16 1013.8 961.8
ЮВ 1 8000 м слаб. дождь 10/9 660 м
[Sc Ac As]
+16.3 +14.8 91 +17 +17 1014.2 962.2
ЮЗ 2 7000 м слаб. дождь 10/9 360 м
[Frnb As op]
+15.9 +15.4 97 +16 +16 1015.2 963.2 +13.6 +17.9 0.0
ЮЗ 2 7000 м слаб. морось {дождь} туман 10/10 90 м
[Frnb]
+15.8 +15.3 97 +16 +16 1015.6 963.6
ЮЗ 3 3000 м слаб. морось туман 10/10 60 м
[Frnb]
+15.7 +15.4 98 +15 +15 1015.9 963.8
ЮВ 3 3000 м слаб. морось {дождь} туман 10/10 60 м
[Frnb]
+15.5 +15.3 99 +15 +15 1015.9 964.0
Ю 2 3000 м слаб. морось туман 10/10 90 м
[Frnb]
+15.1 +14.9 99 +15 +15 1016.2 964.2
Ю 2 5000 м слаб. морось туман 10/10 90 м
[Frnb]
+15.1 +14.9 99 +15 +15 1016.1 964.2
Ю 2 3000 м дождь {морось} туман 10/10 90 м
[Frnb]
+15.1 +14.9 99 +15 +15 1015.7 963.8 1
ЮЗ 2 4000 м дождь {морось} туман 10/10 90 м
[Frnb]
+15.1 +14.9 99 +15 +15 1015.3 963.4
ЮЗ 3 3000 м морось {дождь} туман 10/10 120 м
[Frnb]
+14.9 +14.7 99 +14 +14 1014.8 963.0
ЮЗ 3 4000 м слаб. морось {дождь} туман 10/10 90 м
[Frnb]
+14.9 +14.7 99 +14 +14 1015.0 963.2
Местоположение метеостанции Сан-Мигель-де-Тукуман (Аргентина): широта -26.85 долгота -65.09 высота над уровнем моря 450 м.
В архиве по умолчанию представлена погода в Сан-Мигель-де-Тукумане за последнюю неделю. Архивные данные за месяц целиком и за предыдущие месяцы, начиная с января 2011 года, Вы можете получить, выбрав интересующий диапазон дат из раскрывающегося списка и нажав кнопку "Найти!".
*Определитесь, кто Вы:
Внимание! Время в таблицах - всемирное. Для получения местного времени необходимо прибавить поправку, которая равна -3 ч.
Некоторые строки с данными для отдельных станций могут быть выделены курсивом. Это означает, что фактические данные отсутствуют по различным причинам, а приведенные значения являются расчетными модельными данными для данного пункта наблюдений.
Смотрите также архив погоды в соседних городах и на ближайших метеорологических станциях:
Партнеры нашего сайта:      
Пояснения к столбцам:
  • Ветер - указаны скорость ветра в м/с - средняя за 10 мин, порывы в срок и между сроками (в фигурных скобках) и направление, откуда дует ветер: С - северный,
  • СВ - северо-восточный, В - восточный, ЮВ - юго-восточный, Ю - южный, ЮЗ - юго-западный, З - западный, СЗ - северо-западный.
  • Видимость - горизонтальная дальность видимости в метрах или километрах. При видимости от 1 до 10 км при отсутствии осадков обычно наблюдается дымка, при ухудшении видимости до 1 км и менее - туман. В сухую погоду видимость может ухудшаться дымом, пылью или мглою.
  • Явления - указаны атмосферные явления, наблюдавшиеся в срок или в последний час перед сроком; фигурными скобками обозначены явления, наблюдавшиеся между сроками (за 1-3 часа до срока); квадратными скобками обозначены град или гололедные отложения с указанием их диаметра в мм.
  • Облачность - указаны через наклонную черту общая и нижняя облачность в баллах и высота нижней границы облаков в метрах; квадратными скобками обозначены формы облаков: Ci - перистые, Cs - перисто-слоистые, Cc - перисто-кучевые, Ac - высококучевые, As - высокослоистые, Sc - слоисто-кучевые, Ns - слоисто-дождевые, Cu - кучевые, Cb - кучево-дождевые. Подробнее классификацию облаков см. в Атласе облаков (PDF).
  • T - Температура воздуха - температура, измеренная на высоте 2 м над землей.
  • Td - Температура точки росы - температура, при понижении до которой содержащийся в воздухе водяной пар достигнет насыщения.
  • f - Относительная влажность воздуха - влажноcть воздуха, измеренная на высоте 2 м над землей.
  • Te - Эффективная температура - температура, которую ощущает одетый по сезону человек в тени. Характеристика душности погоды. При расчете учитывается влияние влажности воздуха и скорости ветра на теплоощущения человека.
  • Tes - Эффективная температура на солнце - температура, которую ощущает человек, с поправкой на солнечный нагрев. Характеристика знойности погоды. Зависит от высоты солнца над горизонтом, облачности и скорости ветра. Ночью, в пасмурную погоду, а также при ветре 12 м/с и более поправка равна нулю.
  • P - Атмосферное давление - приведенное к уровню моря атмосферное давление.
  • Po - Атмосферное давление - измеренное на уровне метеостанции атмосферное давление.
  • Tmin - Минимальная температура - минимум температуры воздуха на высоте 2 м над землей.
  • Tmax - Максимальная температура - максимум температуры воздуха на высоте 2 м над землей.
  • R - Количество осадков - Количество выпавших осадков за период времени, мм. При наведении курсора мыши на число - период времени, за который выпало указанное количество осадков.
  • R24 - Количество осадков - Количество выпавших осадков за 24 часа, мм.
  • S - Снежный покров - Высота снежного покрова, см. При наведении курсора мыши на число - состояние снежного покрова и степень покрытия местности в баллах.